Hourly Data Report for December 20, 2003

TORONTO CITY
ONTARIO

43°40'00.000" N
79°24'00.000" W
112.50 m
6158355
71508
XTO

Download Data

Hourly Data (December 2003)
Hourly Data Report for December 20, 2003
TIME
LST
Temp Definition
°C
Dew Point Definition
°C
Rel Hum Definition
%
Precip. Amount Definition
mm

Wind Dir Definition
10's deg

Wind Spd Definition
km/h
Visibility Definition
km
Stn Press Definition
kPa
Hmdx Definition


Wind Chill Definition


Weather Definition


00:00 -2.7 -6.6 74   LegendMM LegendMM LegendMM 99.64     LegendNANA
01:00 -3.4 -7.1 76   LegendMM LegendMM LegendMM 99.70     LegendNANA
02:00 -4.2 -7.8 76   LegendMM LegendMM LegendMM 99.78     LegendNANA
03:00 -4.7 -8.7 74   LegendMM LegendMM LegendMM 99.85     LegendNANA
04:00 -5.1 -8.8 75   LegendMM LegendMM LegendMM 99.90     LegendNANA
05:00 -5.1 -9.1 73   LegendMM LegendMM LegendMM 99.96     LegendNANA
06:00 -5.2 -9.1 74   LegendMM LegendMM LegendMM 100.06     LegendNANA
07:00 -5.6 -9.6 73   LegendMM LegendMM LegendMM 100.14     LegendNANA
08:00 -6.1 -9.6 76   LegendMM LegendMM LegendMM 100.24     LegendNANA
09:00 -6.2 -9.5 77   LegendMM LegendMM LegendMM 100.32     LegendNANA
10:00 -6.1 -10.0 74   LegendMM LegendMM LegendMM 100.41     LegendNANA
11:00 -4.7 -10.0 66   LegendMM LegendMM LegendMM 100.45     LegendNANA
12:00 -5.0 -10.3 66   LegendMM LegendMM LegendMM 100.44     LegendNANA
13:00 -3.6 -9.8 62   LegendMM LegendMM LegendMM 100.44     LegendNANA
14:00 -4.2 -10.7 60   LegendMM LegendMM LegendMM 100.46     LegendNANA
15:00
16:00 -3.3 -11.1 55   LegendMM LegendMM LegendMM 100.61     LegendNANA
17:00
18:00 -3.3 -10.4 58   LegendMM LegendMM LegendMM 100.73     LegendNANA
19:00 -2.9 -8.6 65   LegendMM LegendMM LegendMM 100.72     LegendNANA
20:00 -2.6 -7.3 70   LegendMM LegendMM LegendMM 100.70     LegendNANA
21:00 -2.2 -5.8 76   LegendMM LegendMM LegendMM 100.66     LegendNANA
22:00 -1.5 -5.3 75   LegendMM LegendMM LegendMM 100.64     LegendNANA
23:00 -1.8 -6.2 72   LegendMM LegendMM LegendMM 100.65     LegendNANA

Notes on Data Quality.

Legend

  • E = Estimated
  • M = Missing
  • NA = Not Available*
  • [empty] = Indicates an unobserved value
Date modified: